[[{"header":{"parameterUnit":"m.s-1","parameterCategory":1,"la1":30.2991,"la2":30.254,"lo1":-89.0895,"lo2":-89.0444,"dy":0.0017,"dx":0.0017,"nx":28,"ny":28,"refTime":"2025-04-22T03:00:00:Z","depth":0,"parameterNumber":2,"parameterNumberName":"U-component_of_WINDS"},"data":[0,0,0,0,0,0,0,0,0,0,0,0,0,0,0,0,0,0,0,0,0,0,0,0,0,0,0,0,0,0,0,0,0,0,0,0,0,0,0,0,0,0,0,0,0,0,0,0,0,0,0,0,0,0,0,0,0,0,-0.6206,-0.6206,0,-0.6204,-0.6204,-0.6204,-0.6196,-0.6196,-0.6196,-0.6196,-0.6195,-0.6195,-0.6195,0,0,0,0,0,0,0,0,0,0,0,0,0,-0.6203,-0.6203,-0.6206,-0.6206,-0.6206,-0.6204,-0.6204,-0.6204,-0.6196,-0.6196,-0.6196,-0.6196,-0.6195,-0.6195,-0.6195,0,0,0,0,0,0,0,0,0,0,0,0,0,-0.6203,-0.6203,-0.6206,-0.6202,-0.6201,-0.6204,-0.6204,-0.6204,-0.6197,-0.6196,-0.6196,-0.6196,-0.6195,-0.6195,-0.6195,-0.6202,0,0,-0.6196,-0.6196,0,0,0,0,0,0,0,0,-0.6203,-0.6203,-0.6202,-0.6202,-0.6202,-0.62,-0.6203,-0.6203,-0.6197,-0.6198,-0.6196,-0.6196,-0.6197,-0.6197,-0.6197,-0.6202,-0.6202,-0.6196,-0.6196,-0.6196,-0.6196,0,0,0,0,0,0,0,-0.6203,-0.6203,-0.6205,-0.6202,-0.6202,-0.62,-0.62,-0.6203,-0.6199,-0.6198,-0.6198,-0.6198,-0.6197,-0.6197,-0.6197,-0.6202,-0.6196,-0.6196,-0.6196,-0.6196,-0.6211,-0.6211,0,0,0,0,0,0,-0.6204,-0.6203,-0.6205,-0.6205,-0.6202,-0.62,-0.62,-0.6201,-0.6199,-0.6199,-0.6198,-0.6197,-0.6197,-0.6197,-0.6197,-0.6204,-0.6196,-0.6196,-0.6196,-0.6211,-0.6211,-0.6211,0,0,0,0,0,0,-0.6204,-0.6204,-0.6205,-0.6204,-0.6204,-0.6201,-0.6202,-0.6201,-0.6201,-0.6199,-0.6198,-0.6199,-0.6197,-0.6197,-0.62,-0.6204,-0.6196,-0.6197,-0.621,-0.6211,-0.6211,-0.6219,0,0,0,0,0,0,-0.6204,-0.6204,-0.6206,-0.6204,-0.6204,-0.6208,-0.6202,-0.6201,-0.6202,-0.6201,-0.6199,-0.6199,-0.6196,-0.62,-0.6201,-0.6204,-0.6197,-0.621,-0.6211,-0.6211,-0.6219,-0.622,-0.6221,0,0,0,0,0,-0.6204,-0.6209,-0.6206,-0.6207,-0.6207,-0.6209,-0.6209,-0.6205,-0.6202,-0.6204,-0.6203,-0.6199,-0.6204,-0.6201,-0.6201,-0.6205,-0.621,-0.621,-0.6211,-0.6218,-0.622,-0.6221,0,0,0,0,0,0,-0.6212,-0.6208,-0.6206,-0.621,-0.621,-0.6207,-0.621,-0.6207,-0.6208,-0.6207,-0.6203,-0.6203,-0.6207,-0.6206,-0.6203,-0.6211,-0.6206,-0.6207,-0.6211,-0.6213,-0.6214,-0.6214,-0.6197,0,0,0,0,0,-0.6214,-0.6216,-0.6213,-0.6217,-0.6217,-0.6214,-0.6214,-0.6212,-0.6211,-0.6211,-0.6209,-0.6209,-0.6211,-0.6212,-0.6213,-0.6218,-0.6218,-0.6221,-0.6222,-0.6223,-0.6224,-0.6227,-0.6228,-0.6213,-0.6213,-0.6213,0,0,-0.6219,-0.6217,-0.6219,-0.6219,-0.6218,-0.622,-0.6213,-0.6216,-0.6217,-0.6211,-0.6215,-0.6214,-0.6213,-0.6218,-0.622,-0.6217,-0.6228,-0.6224,-0.6225,-0.6225,-0.6228,-0.6229,-0.623,-0.6214,-0.6214,-0.6214,0,0,-0.6229,-0.6228,-0.6231,-0.623,-0.6229,-0.6227,-0.6228,-0.6226,-0.6225,-0.6228,-0.6224,-0.6225,-0.6228,-0.6227,-0.6228,-0.6237,-0.6234,-0.6237,-0.6244,-0.6246,-0.6247,-0.6248,-0.6252,-0.6253,-0.6238,-0.6238,-0.6238,0,-0.6235,-0.6237,-0.6233,-0.6236,-0.6236,-0.623,-0.6234,-0.6233,-0.6233,-0.6233,-0.623,-0.6233,-0.6232,-0.6237,-0.6239,-0.6239,-0.624,-0.6238,-0.6248,-0.6249,-0.6249,-0.6253,-0.6254,-0.6239,-0.6239,-0.6239,-0.6239,0,-0.6245,-0.6247,-0.625,-0.6249,-0.6249,-0.6252,-0.6249,-0.625,-0.6247,-0.6245,-0.6248,-0.6247,-0.6248,-0.6249,-0.6247,-0.6253,-0.6252,-0.6248,-0.6243,-0.6251,-0.6254,-0.6255,-0.6239,-0.6239,-0.6239,-0.6239,0,0,-0.626,-0.6257,-0.6258,-0.6257,-0.6255,-0.6257,-0.6259,-0.626,-0.6261,-0.6261,-0.6263,-0.6265,-0.6262,-0.6262,-0.6259,-0.6262,-0.6269,-0.6258,-0.6258,-0.626,-0.6276,-0.6279,-0.628,-0.6267,-0.6267,-0.6267,-0.6276,0,-0.627,-0.6274,-0.627,-0.6275,-0.6276,-0.6271,-0.6273,-0.6272,-0.6271,-0.6272,-0.627,-0.6272,-0.6267,-0.6267,-0.627,-0.6268,-0.6272,-0.6267,-0.6269,-0.6269,-0.627,-0.6282,-0.6285,-0.6293,-0.6277,-0.6278,-0.6278,0,-0.6281,-0.6281,-0.6286,-0.6283,-0.6284,-0.6286,-0.6286,-0.6287,-0.6286,-0.6284,-0.6285,-0.6281,-0.6284,-0.6279,-0.6283,-0.6279,-0.628,-0.6279,-0.6279,-0.628,-0.6274,-0.6282,-0.6296,-0.6297,-0.6279,-0.6279,-0.6279,0,-0.6292,-0.6293,-0.6296,-0.6295,-0.6292,-0.6294,-0.6293,-0.6292,-0.6292,-0.6292,-0.6292,-0.6293,-0.6293,-0.6294,-0.6291,-0.6287,-0.6295,-0.629,-0.6294,-0.6294,-0.6296,-0.6296,-0.6309,-0.6296,-0.6296,-0.6296,-0.6296,0,-0.6302,-0.6306,-0.63,-0.6302,-0.6306,-0.6301,-0.6305,-0.6303,-0.6302,-0.6304,-0.6299,-0.6301,-0.6297,-0.6298,-0.6296,-0.6299,-0.6299,-0.6298,-0.6298,-0.6299,-0.6299,-0.6299,-0.6299,-0.6296,-0.6296,-0.6296,-0.6296,0,-0.6315,-0.6312,-0.6314,-0.6311,-0.6311,-0.6313,-0.6311,-0.6313,-0.631,-0.6312,-0.6313,-0.6309,-0.6311,-0.6308,-0.6309,-0.6307,-0.6312,-0.631,-0.6312,-0.6312,-0.6316,-0.6316,-0.633,-0.6332,-0.6318,-0.6318,-0.6318,0,-0.6322,-0.6325,-0.6322,-0.6322,-0.6321,-0.6322,-0.6322,-0.6318,-0.6319,-0.6318,-0.6319,-0.632,-0.6321,-0.6323,-0.6321,-0.6321,-0.632,-0.6325,-0.632,-0.6321,-0.632,-0.632,-0.632,-0.6326,-0.6326,-0.6326,-0.6327,0,-0.6336,-0.6334,-0.6334,-0.6334,-0.6334,-0.6333,-0.6333,-0.6334,-0.6329,-0.633,-0.6331,-0.6331,-0.6332,-0.6333,-0.6333,-0.6332,-0.6329,-0.6328,-0.6329,-0.633,-0.6331,-0.6331,-0.6315,-0.6328,-0.6328,-0.6328,-0.6328,-0.6328,-0.6346,-0.6348,-0.6346,-0.6346,-0.6345,-0.6344,-0.6346,-0.6343,-0.6344,-0.6344,-0.6341,-0.6343,-0.6342,-0.6341,-0.6341,-0.6342,-0.634,-0.6341,-0.6342,-0.6342,-0.6343,-0.6331,-0.6342,-0.6342,-0.6342,-0.6342,-0.6342,0,-0.6359,-0.6357,-0.6358,-0.6357,-0.6357,-0.6353,-0.6352,-0.6353,-0.6354,-0.6353,-0.6353,-0.6354,-0.6355,-0.6353,-0.6353,-0.6355,-0.6353,-0.6355,-0.6355,-0.6355,-0.6345,-0.6344,-0.6356,-0.6356,-0.6356,-0.6356,-0.6356,-0.6356,-0.6366,-0.6369,-0.6366,-0.6368,-0.6367,-0.6368,-0.6367,-0.6367,-0.6366,-0.6367,-0.6368,-0.6366,-0.6364,-0.6365,-0.6365,-0.6364,-0.6365,-0.6367,-0.6366,-0.6357,-0.6355,-0.6354,-0.6353,-0.6367,-0.6367,-0.6376,-0.6376,-0.6376]},{"header":{"parameterUnit":"m.s-1","parameterCategory":1,"la1":30.2991,"la2":30.254,"lo1":-89.0895,"lo2":-89.0444,"dy":0.0017,"dx":0.0017,"nx":28,"ny":28,"refTime":"2025-04-22T03:00:00:Z","depth":0,"parameterNumber":3,"parameterNumberName":"V-component_of_WINDS"},"data":[0,0,0,0,0,0,0,0,0,0,0,0,0,0,0,0,0,0,0,0,0,0,0,0,0,0,0,0,0,0,0,0,0,0,0,0,0,0,0,0,0,0,0,0,0,0,0,0,0,0,0,0,0,0,0,0,0,0,1.6559,1.6559,0,1.6562,1.6562,1.6562,1.6532,1.6531,1.6531,1.653,1.6532,1.6532,1.6533,0,0,0,0,0,0,0,0,0,0,0,0,0,1.6529,1.653,1.6559,1.6559,1.6559,1.6562,1.6562,1.6562,1.6532,1.6531,1.653,1.6529,1.6531,1.6532,1.6533,0,0,0,0,0,0,0,0,0,0,0,0,0,1.6538,1.653,1.6559,1.6545,1.6544,1.6562,1.6562,1.6562,1.6533,1.6531,1.653,1.6529,1.6531,1.6532,1.6533,1.6565,0,0,1.6537,1.6538,0,0,0,0,0,0,0,0,1.6537,1.6539,1.6547,1.6546,1.6545,1.6545,1.6552,1.6563,1.6533,1.6537,1.653,1.6528,1.6537,1.6538,1.6541,1.6565,1.6565,1.6537,1.6538,1.6538,1.6539,0,0,0,0,0,0,0,1.6537,1.6539,1.656,1.6547,1.6546,1.6538,1.6538,1.6554,1.6544,1.6536,1.6534,1.6535,1.6536,1.654,1.6541,1.6565,1.6537,1.6538,1.6539,1.6539,1.6615,1.6617,0,0,0,0,0,0,1.6538,1.6538,1.656,1.656,1.6538,1.654,1.654,1.6546,1.6543,1.6542,1.6536,1.6534,1.6538,1.6539,1.6541,1.6577,1.6538,1.654,1.654,1.6614,1.6616,1.6617,0,0,0,0,0,0,1.6538,1.654,1.656,1.6549,1.6551,1.6542,1.6549,1.6547,1.6551,1.6543,1.6541,1.6541,1.6537,1.6539,1.6559,1.6577,1.654,1.6541,1.6613,1.6615,1.6616,1.6651,0,0,0,0,0,0,1.6537,1.654,1.6553,1.6549,1.6551,1.6579,1.655,1.6548,1.6553,1.655,1.6548,1.6546,1.6537,1.6558,1.656,1.6578,1.6542,1.6611,1.6613,1.6616,1.6648,1.6654,1.6659,0,0,0,0,0,1.6536,1.6562,1.6553,1.6556,1.6566,1.658,1.6581,1.657,1.6554,1.6566,1.6561,1.6546,1.6575,1.656,1.6563,1.6581,1.661,1.6613,1.6616,1.6646,1.6653,1.6659,0,0,0,0,0,0,1.6567,1.6561,1.6552,1.6577,1.658,1.6575,1.659,1.6577,1.6584,1.658,1.6566,1.6565,1.6588,1.6587,1.657,1.6611,1.6589,1.6593,1.6612,1.6618,1.6623,1.6623,1.6543,0,0,0,0,0,1.6577,1.6589,1.6583,1.6607,1.6608,1.6599,1.6604,1.6595,1.6597,1.6597,1.6594,1.6596,1.6605,1.6611,1.662,1.6648,1.6647,1.6662,1.6667,1.6672,1.6675,1.669,1.6696,1.6627,1.6627,1.6627,0,0,1.6598,1.6596,1.6604,1.6613,1.6613,1.6626,1.66,1.6614,1.6623,1.6599,1.6618,1.6616,1.6617,1.6642,1.6652,1.6641,1.6694,1.6675,1.6679,1.668,1.6693,1.67,1.6706,1.6629,1.6628,1.6628,0,0,1.6642,1.6642,1.6661,1.6662,1.6663,1.6657,1.6662,1.6659,1.6657,1.6676,1.6658,1.6669,1.6685,1.6687,1.6689,1.6734,1.672,1.6737,1.6765,1.6779,1.6785,1.679,1.6805,1.6811,1.6741,1.6741,1.6741,0,1.6667,1.6685,1.6673,1.6688,1.6692,1.6672,1.6691,1.6693,1.6697,1.67,1.6687,1.6708,1.6707,1.6731,1.6742,1.6745,1.675,1.6737,1.6785,1.679,1.6794,1.6809,1.6815,1.6743,1.6742,1.6742,1.6742,0,1.6717,1.6729,1.6745,1.6749,1.6755,1.6773,1.6762,1.677,1.676,1.6755,1.6775,1.6773,1.6781,1.6786,1.6777,1.6809,1.6802,1.6788,1.6765,1.6803,1.6817,1.6822,1.6746,1.6745,1.6744,1.6744,0,0,1.678,1.6777,1.6783,1.6785,1.6785,1.6794,1.6811,1.6818,1.6825,1.6828,1.6842,1.6856,1.6843,1.6846,1.6837,1.685,1.6885,1.6833,1.6833,1.6843,1.6921,1.6931,1.6938,1.6876,1.6877,1.6878,1.692,0,1.6823,1.6851,1.684,1.6869,1.688,1.6861,1.6876,1.6877,1.6873,1.6882,1.6877,1.6887,1.6869,1.6871,1.6883,1.6878,1.69,1.6875,1.6888,1.6889,1.6888,1.6945,1.6957,1.6997,1.6926,1.6927,1.6927,0,1.6876,1.6882,1.6912,1.691,1.6914,1.6927,1.6933,1.6942,1.6943,1.6939,1.6943,1.6931,1.6947,1.6925,1.6946,1.6929,1.6934,1.6933,1.6934,1.6935,1.691,1.6948,1.701,1.7016,1.6936,1.6935,1.6934,0,1.692,1.6935,1.6955,1.6957,1.6955,1.6964,1.6964,1.6964,1.6969,1.6974,1.6977,1.6984,1.6988,1.6994,1.6984,1.6969,1.7007,1.6984,1.7004,1.7004,1.7013,1.7012,1.7077,1.7016,1.7016,1.7016,1.7016,0,1.6968,1.6987,1.6974,1.6986,1.7007,1.6994,1.7015,1.7013,1.7013,1.7024,1.7008,1.7019,1.7005,1.7015,1.7007,1.7026,1.7028,1.7025,1.7023,1.7027,1.7027,1.703,1.7026,1.7017,1.7017,1.7017,1.7017,0,1.702,1.7012,1.7032,1.7029,1.7029,1.7044,1.7041,1.7052,1.7047,1.7061,1.7064,1.7056,1.7066,1.7057,1.7067,1.7062,1.7087,1.7081,1.7087,1.7085,1.7105,1.7104,1.7173,1.7182,1.7116,1.7117,1.7117,0,1.7052,1.7066,1.7064,1.7071,1.7071,1.7082,1.7087,1.7075,1.7081,1.7084,1.7095,1.7104,1.711,1.7128,1.7123,1.713,1.7124,1.7148,1.7125,1.7128,1.7124,1.7124,1.7125,1.7153,1.7154,1.7154,1.7155,0,1.7109,1.7104,1.7112,1.7119,1.7126,1.7131,1.7134,1.7141,1.7128,1.7136,1.7147,1.7152,1.7162,1.7172,1.7177,1.7177,1.7164,1.7162,1.7167,1.7171,1.7174,1.7172,1.7099,1.716,1.716,1.7159,1.7159,1.7159,1.7151,1.7163,1.7164,1.7173,1.7175,1.7179,1.7189,1.7185,1.7194,1.7201,1.7194,1.7206,1.7207,1.7214,1.7215,1.7225,1.7214,1.7222,1.7224,1.7226,1.7229,1.7172,1.7226,1.7225,1.7225,1.7225,1.7225,0,1.7207,1.7207,1.7216,1.7221,1.7229,1.7216,1.722,1.7227,1.7239,1.724,1.7247,1.726,1.7268,1.7264,1.7272,1.728,1.7275,1.7283,1.7282,1.7282,1.7237,1.7232,1.7287,1.7287,1.7287,1.7287,1.7287,1.7287,1.7237,1.7257,1.7252,1.7272,1.7271,1.7284,1.7287,1.729,1.7291,1.7306,1.7313,1.731,1.7309,1.7317,1.7325,1.7323,1.7327,1.7337,1.7333,1.7291,1.7285,1.7279,1.7274,1.7338,1.7338,1.7377,1.7378,1.7378]}]]